Regional Weather Roundup
Issued by NWS

Home | Current Version | Previous Version | Text Only | Print | Product List | Glossary On
Versions: 1 2 3 4 5 6 7 8 9 10 11 12 13 14 15 16 17 18 19 20 21 22 23 24 25 26 27 28 29 30 31 32 33 34 35 36 37 38 39 40 41 42 43 44 45 46 47 48 49 50
000
ASUS43 KMKX 011911
RWRWI

WISCONSIN REGIONAL WEATHER ROUNDUP
NATIONAL WEATHER SERVICE MILWAUKEE/SULLIVAN WI
200 PM CDT WED JUL 01 2015

NOTE: "FAIR" INDICATES FEW OR NO CLOUDS BELOW 12,000 FEET WITH NO
SIGNIFICANT WEATHER AND/OR OBSTRUCTIONS TO VISIBILITY.

WIZ001-002-006>008-014>016-023>028-012000-
NORTHWEST WISCONSIN

CITY           SKY/WX    TMP DP  RH WIND       PRES   REMARKS
SUPERIOR ARPT  MOSUNNY   70  58  66 E7        30.01S
ASHLAND        SUNNY     69  50  50 CALM      30.02F
HAYWARD        MOSUNNY   70  47  43 NE6       30.02F
SIREN          SUNNY     71  47  42 E3        30.02S
CUMBERLAND     SUNNY     66  45  45 N5        30.03S
RICE LAKE      SUNNY     69  49  47 NW3       30.03F
CHETEK         SUNNY     68  49  51 CALM      30.02F
LADYSMITH      MOSUNNY   70  48  46 N6        30.03F
EAU CLAIRE     MOSUNNY   70  46  42 NE7       30.01S
MENOMONIE      MOSUNNY   69  47  45 NE6       30.02S
NEW RICHMOND   SUNNY     69  48  45 E3        30.02S
OSCEOLA        SUNNY     71  49  44 SE3       30.04S
$$

WIZ003>005-009-010-017-018-012000-
NORTH CENTRAL WISCONSIN

CITY           SKY/WX    TMP DP  RH WIND       PRES   REMARKS
MANITOWISH WTR SUNNY     66  44  45 CALM      30.02S
ARBOR VITAE    SUNNY     67  43  42 NE5       30.02F
WOODRUFF       SUNNY     67  43  42 NE5       30.02F
RHINELANDER    MOSUNNY   67  42  40 VRB3      30.02F
EAGLE RIVER    SUNNY     66  43  42 N5        30.02S
LAND O LAKES   SUNNY     65  42  43 NE8       30.03F
PHILLIPS       SUNNY     67  47  48 CALM      30.02S
TOMAHAWK       MOSUNNY   66  44  45 NE6       30.02S
MEDFORD        MOSUNNY   67  45  44 NE3       30.02S
MERRILL        MOSUNNY   67  47  48 N3        30.01F
$$

WIZ029-030-035-036-043>047-012000-
CENTRAL WISCONSIN

CITY           SKY/WX    TMP DP  RH WIND       PRES   REMARKS
WAUSAU         MOSUNNY   70  43  37 MISG      29.99S
MOSINEE        SUNNY     68  46  45 NE6       30.01S
MARSHFIELD     PTSUNNY   68  45  43 E5        30.01F
STEVENS POINT  PTSUNNY   66  42  42 NW6       30.01S
WAUPACA        PTSUNNY   71  43  35 NE6       29.99F
WAUTOMA        MOSUNNY   70  44  38 CALM      29.99F
WISC RAPIDS    PTSUNNY   71  41  33 N7        30.01F
CAMP DOUGLAS   PTSUNNY   70  50  49 E6        29.99F
$$

WIZ011>013-019>022-031-037>040-048>050-012000-
NORTHEAST WISCONSIN

CITY           SKY/WX    TMP DP  RH WIND       PRES   REMARKS
ANTIGO         MOSUNNY   67  47  49 NE8       30.01S
SHAWANO        PTSUNNY   69  46  42 E7        29.99S
OCONTO         MOSUNNY   65  51  60 N7        29.99F
STURGEON BAY   MOSUNNY   61  48  63 NW6       30.03S
GREEN BAY      PTSUNNY   63  52  67 VRB5      30.00S
MANITOWOC      CLOUDY    59  52  77 MISG      30.00S
APPLETON       MOSUNNY   64  50  59 N9        30.00S
CLINTONVILLE   PTSUNNY   68  43  40 NE5       29.99S
OSHKOSH        MOSUNNY   66  52  60 CALM      29.99S
$$

WIZ032>034-041-042-053>061-012000-
SOUTHWEST WISCONSIN

CITY           SKY/WX    TMP DP  RH WIND       PRES   REMARKS
LA CROSSE      PTSUNNY   69  49  48 NE6       29.99F
SPARTA         PTSUNNY   69  44  40 CALM      30.00F
VIROQUA        PTSUNNY   66  45  46 NE8       30.01S
BOSCOBEL       CLOUDY    69  50  50 VRB6      29.98F
PRAIRIE DU CHI CLOUDY    67  49  53 N8        29.99S
PLATTEVILLE    PTSUNNY   68  54  60 NE7       29.98S
$$

WIZ056-057-062-063-064-067-068-012000-
SOUTH CENTRAL WISCONSIN

CITY           SKY/WX    TMP DP  RH WIND       PRES   REMARKS
REEDSBURG      CLOUDY    67  47  49 NE6       29.98F
BARABOO/DELLS  CLOUDY    66  45  45 NE8       29.98F
LONE ROCK      CLOUDY    66  50  56 NE6       29.99S
MINERAL POINT  CLOUDY    68  46  45 N8        29.98F
MADISON        PTSUNNY   69  48  47 VRB6      29.98S
MIDDLETON      PTSUNNY   69  46  42 NE6       29.99S
WATERTOWN      PTSUNNY   66  53  63 N7        29.97F
MONROE         PTSUNNY   68  48  49 N7        29.98R
JANESVILLE     NOT AVBL
$$

WIZ051-052-058>065-066-070>072-012000-
SOUTHEAST WISCONSIN

CITY           SKY/WX    TMP DP  RH WIND       PRES   REMARKS
MILWAUKEE      PTSUNNY   60  50  69 E13       29.99S
WAUKESHA       PTSUNNY   66  50  55 N5        29.98F
MILWAUKEE/TIMM SUNNY     61  48  63 E7        30.00R
RACINE         MOSUNNY   60  49  66 E10       30.00S
BURLINGTON     MOSUNNY   67  49  51 N6        29.97S
KENOSHA        MOSUNNY   64  52  64 E9        29.98F
FOND DU LAC    MOSUNNY   67  54  63 NE8       29.99F
SHEBOYGAN      CLOUDY    64  54  69 MISG      29.99F
WEST BEND      CLOUDY    64  52  63 E6        29.98F
JUNEAU         PTSUNNY   64  52  64 N6        29.99F
$$

LSZ147-162-012000-
LAKE SUPERIOR

STATION/POSITION TIME  TEMP    WIND        PRES    WAVE
                       AIR SEA DIR/SP/G            HT/PER
                 (UTC) (F)     (DEG/KT/KT) (MB)    (FT/S)
W MID LAKE BUOY  1850   45 39  180/  6/  6 1017.5F   1
DEVILS ISLAND    1900   60      90/  5/  5 1017.1F
PORT WING        1800   61      40/  6/  7 1016.9
SAXON HARBOR     1800   61        CALM     1017.3S
$$

LMZ867-665-643>646-012000-
LAKE MICHIGAN

STATION/POSITION TIME  TEMP    WIND        PRES    WAVE
                       AIR SEA DIR/SP/G            HT/PER
                 (UTC) (F)     (DEG/KT/KT) (MB)    (FT/S)
CHAMBERS ISLAND  1800   60      10/  4/  6 1015.9R
S GREEN BAY BUOY 1800   56 68  250/  6/  8 1017.5
N MID LAKE BUOY  1850   49 41  150/  2/  2 1015.6R   2/ 4
NORTHPORT PIER   1800   57     340/  6/ 10 1015.6R
SISTER BAY       1814   65     360/ 11/ 16   N/A
ALGOMA LAKESHORE 1810          320/  8/ 10   N/A
KEWAUNEE LAKESHO 1800   58     310/  3/  6 1015.4R
SHEBOYGAN LAKESH 1900   52      90/  9/ 10 1016.4R
PORT WASHINGTON  1800   58     100/  8/  9 1016.9
ATWATER BUOY     1900   54      90/ 10/ 12 1016.8F
MILWAUKEE LAKESH 1800   56      70/  8/ 10   N/A
KENOSHA   LAKESH 1900   56      70/  9/ 10 1015.2F
$$

TC  - TEMPERATURE IN CELSIUS
VSB - VISIBILITY IN STATUTE MILES
WCI - WIND CHILL INDEX
HX  - HEAT INDEX



USA.gov is the U.S. government's official web portal to all federal, state and local government web resources and services.